STARLINK-34101, 63812

Orbit data source: Space-Track

STARLINK-34101, 63812 is a payload satellite owned by SpaceX/Seattle (US) in LEO that was launched on Sun, 04 May 2025 UTC via an FALCON 9 launch vehicle from the Air Force Eastern Test Range (AFETR). Payload-class satellites include a variety of spacecraft equipped with specific instruments for various scientific and technological missions. These include communications satellites like Starlink; space stations such as the ISS; scientific satellites like the Hubble; Earth observation satellites from companies like Planet Labs, Umbra, and HawkEye 360; GPS; miniature CubeSats for education and research; and military/defense satellites.

Loading next visibility...
Identifier
63812, 2025-092J
Orbit
LEO
Last TLE update
11 hours ago
Origin
Manufacturer
SpaceX/Seattle
Mission
Operational Commercial Communications
Bus & Motor
STARLINK V2MO, Unknown motor
Mass
575 kg wet, ~530 kg dry
Launch date (UTC)
2025-05-04 (2 months ago)
Launch vehicle
FALCON 9
Launch site
Air Force Eastern Test Range (AFETR)
Object type
Payload
Rocket body
Debris
Shape & HBR
Box + 1 Pan, 29 m
Radar Cross Section
41.120 m², Large (>1 m²)

Expand to show TLE details & history

TLE from 11 hours ago
0 STARLINK-34101
1 63812U 25092J   25188.84657208  .00020709  00000-0  75974-3 0  9995
2 63812  42.9978 114.8853 0000771 222.1603 137.9189 15.27589784 11110
Epoch: 2025-07-07T20:19Z
TLE epoch observation values (Epoch: 2025-07-07T20:19:03.827Z)
Latitude
-0.00006°
Longitude
-115.93075°
Altitude
483.188 km
Speed
7.625 km/s
True Right ascension
07h 39m 32s
True Declination
0° 00' 00"
Sunlit
Object was in daylight at epoch
Visualization orbit readout
Latitude
17.45328°
Longitude
-98.9516°
Altitude
482.63 km
Speed
7.627 km/s
Apparent Right ascension
08h 14m 33s
Apparent Declination
-10° 10' 20"
Sunlit
Object is in daylight
Visualization observer readout
Local Sidereal Time
19:30:28
Azimuth
338.776° N
Elevation
-58.686°
Doppler factor
1
Orbital elements
Apogee altitude
485.494 km
Perigee altitude
484.436 km
Semi-major axis
6,863.102 km
Eccentricity
0.00008
Inclination
42.9978°
RAAN
114.8853°
Arg. of periapsis
222.1603°
True anomaly
Unknown
Mean anomaly
137.9189°
Eccentric anomaly
Unknown
Mean motion
3.81735 °/min
Orbital period
94.31 mins
BSTAR
0.00075974
Loading maneuver chart data...
Loading SW <> Apogee altitude chart data...
Loading historical data...
Loading historical data...
Loading historical data...
Loading historical data...
Loading historical data...
Loading historical data...
Loading historical data...

STARLINK-34101 Visibility forecast

Observer location: undefined°, undefined°

Span
Click to sort rows by Start time (UTC) header in descending order
Start Az.
Max El. time (UTC)
Max El. Az.
Max El.
End time (UTC)
End Az.
5 mins2025-07-08 21:36:55.867Z190.274° SSW2025-07-08 21:38:55.867Z152.891° SSE20.282°2025-07-08 21:41:55.867Z96.002° ESE
5 mins2025-07-08 23:15:55.867Z249.658° W2025-07-08 23:17:55.867Z99.84° ESE44.938°2025-07-08 23:20:55.867Z72.164° E
5 mins2025-07-09 00:54:55.867Z290.925° WNW2025-07-09 00:56:55.867Z354.505° N38.014°2025-07-09 00:59:55.867Z73.04° E
5 mins2025-07-09 02:33:55.867Z290.885° WNW2025-07-09 02:35:55.867Z325.295° NNW44.02°2025-07-09 02:38:55.867Z103.285° ESE
5 mins2025-07-09 04:12:55.867Z257.892° W2025-07-09 04:14:55.867Z210.936° SW24.486°2025-07-09 04:17:55.867Z154.772° SSE
|